Simultaneous Nadir Overpasses (SNOs) Predictions

Prediction of SNOs between AQUA and METOP-A Satellite Orbit:

Table of predicted SNOs for the next 14.0 days since TLE Epoch: 11/18/2011
Index Date Time (AQUA) AQUA Lat,Lon METOP-A Lat,Lon Distance(km) Time Diff (sec)
1 11/20/2011 11:53:35 -72.52, 178.05 -72.48, 173.21 161.94 58
2 11/20/2011 12:43:25 73.70, -16.71 73.72, -16.73 2.95 33
3 11/20/2011 13:32:52 -73.77, 150.78 -73.77, 150.70 2.32 41
4 11/20/2011 14:22:50 75.33, -45.45 75.31, -37.80 215.70 51
5 11/23/2011 07:27:57 -72.41,-115.37 -72.36,-120.62 176.73 56
6 11/23/2011 08:17:49 73.70, 49.67 73.71, 49.65 0.77 35
7 11/23/2011 09:07:16 -73.76,-142.82 -73.75,-142.92 3.45 39
8 11/23/2011 09:57:12 75.23, 21.23 75.20, 28.29 200.35 53
9 11/26/2011 03:02:20 -71.95, -48.15 -71.91, -55.07 238.55 48
10 11/26/2011 03:52:21 73.72, 116.01 73.72, 116.10 2.99 45
11 11/26/2011 04:41:48 -73.77, -76.46 -73.76, -76.47 0.71 29
12 11/26/2011 05:31:36 74.83, 88.65 74.83, 93.63 144.78 59
13 11/28/2011 22:36:40 -70.94, 19.85 -70.97, 9.66 369.46 28
14 11/28/2011 23:26:59 73.69,-177.59 73.66,-177.62 3.19 60
15 11/29/2011 00:16:26 -73.73, -10.03 -73.75, -10.08 2.91 13
16 11/29/2011 01:06:02 74.17, 156.60 74.19, 158.33 52.57 68
17 12/01/2011 19:01:36 73.30,-110.45 73.28,-112.08 51.92 69
18 12/01/2011 19:51:10 -73.70, 56.34 -73.72, 56.27 3.15 10
19 12/01/2011 20:40:39 73.78,-136.20 73.81,-136.19 3.13 59




NCC Satellite Simultaneous Nadir Overpasses (SNOs) Prediction Service
